| time (UTC) | temp C | wind direction | speed KPH | gust KPH | rain 1hr cm | rain 24hr cm | rain mn cm | humidity % | barometer mb |
| 20260831121548 | 19 | 172 | 0.0 | 0.0 | 0.00 | 0.00 | 0.08 | 92 | 1005.2 |
| 20260831120045 | 18 | 118 | 0.0 | 0.0 | 0.00 | 0.00 | 0.05 | 92 | 1005.2 |
| 20260831114552 | 18 | 179 | 0.0 | 0.0 | 0.00 | 0.00 | 0.05 | 92 | 1005.5 |
| 20260831113043 | 18 | 179 | 0.0 | 0.0 | 0.00 | 0.00 | 0.05 | 92 | 1005.6 |
| 20260831111551 | 18 | 128 | 0.0 | 0.0 | 0.00 | 0.00 | 0.05 | 93 | 1005.5 |
| 20260831110042 | 17 | 162 | 0.0 | 0.0 | 0.00 | 0.00 | 0.05 | 92 | 1005.4 |
| 20260831104545 | 16 | 161 | 0.0 | 0.0 | 0.00 | 0.00 | 0.05 | 92 | 1005.7 |
| 20260831103040 | 17 | 162 | 0.0 | 0.0 | 0.00 | 0.00 | 0.05 | 91 | 1005.6 |
| 20260831101540 | 18 | 157 | 0.0 | 0.0 | 0.00 | 0.00 | 0.05 | 92 | 1005.6 |
| 20260831100057 | 18 | 153 | 0.0 | 0.0 | 0.00 | 0.00 | 0.05 | 92 | 1005.8 |
| 20260831094538 | 18 | 227 | 0.0 | 0.0 | 0.00 | 0.00 | 0.05 | 93 | 1005.8 |
| 20260831093039 | 18 | 183 | 0.0 | 0.0 | 0.00 | 0.00 | 0.05 | 94 | 1005.9 |
| 20260831091531 | 17 | 188 | 0.0 | 0.0 | 0.00 | 0.00 | 0.05 | 94 | 1006.1 |
| 20260831090029 | 17 | 137 | 0.0 | 0.0 | 0.00 | 0.00 | 0.05 | 94 | 1006.2 |
| 20260831084527 | 17 | 184 | 0.0 | 0.0 | 0.00 | 0.00 | 0.05 | 94 | 1006.5 |
| 20260831083025 | 16 | 184 | 0.0 | 0.0 | 0.00 | 0.00 | 0.05 | 94 | 1006.4 |
| 20260831081523 | 16 | 180 | 0.0 | 0.0 | 0.00 | 0.00 | 0.05 | 94 | 1006.5 |
| 20260831080026 | 16 | 173 | 0.0 | 0.0 | 0.00 | 0.00 | 0.05 | 94 | 1006.5 |
| 20260831074521 | 16 | 215 | 0.0 | 0.0 | 0.00 | 0.00 | 0.05 | 94 | 1006.6 |
| 20260831073033 | 16 | 216 | 0.0 | 0.0 | 0.00 | 0.00 | 0.05 | 94 | 1006.7 |
| 20260831071520 | 16 | 229 | 0.0 | 0.0 | 0.00 | 0.00 | 0.05 | 94 | 1006.8 |
| 20260831070018 | 16 | 229 | 0.0 | 0.0 | 0.00 | 0.00 | 0.05 | 94 | 1006.8 |
| 20260831064523 | 15 | 229 | 0.0 | 0.0 | 0.00 | 0.00 | 0.05 | 94 | 1006.6 |
| 20260831063023 | 15 | 229 | 0.0 | 0.0 | 0.00 | 0.00 | 0.05 | 94 | 1006.5 |
| 20260831061515 | 15 | 229 | 0.0 | 0.0 | 0.00 | 0.00 | 0.05 | 94 | 1006.7 |
| 20260831060015 | 15 | 229 | 0.0 | 0.0 | 0.00 | 0.00 | 0.05 | 94 | 1006.8 |
| 20260831054514 | 15 | 229 | 0.0 | 0.0 | 0.00 | 0.00 | 0.05 | 94 | 1006.7 |
| 20260831053013 | 15 | 229 | 0.0 | 0.0 | 0.00 | 0.00 | 0.05 | 93 | 1006.8 |
| 20260831051511 | 14 | 229 | 0.0 | 0.0 | 0.00 | 0.00 | 0.05 | 93 | 1007.0 |
| 20260831050127 | 14 | 229 | 0.0 | 0.0 | 0.00 | 0.00 | 0.05 | 93 | 1007.0 |
| 20260831044510 | 14 | 229 | 0.0 | 0.0 | 0.00 | 0.00 | 0.05 | 93 | 1007.1 |
| 20260831043011 | 14 | 229 | 0.0 | 0.0 | 0.00 | 0.00 | 0.03 | 93 | 1007.1 |
| 20260831041508 | 14 | 229 | 0.0 | 0.0 | 0.00 | 0.00 | 0.03 | 93 | 1007.1 |
| 20260831040010 | 14 | 229 | 0.0 | 0.0 | 0.00 | 0.00 | 0.03 | 92 | 1007.0 |
| 20260831034507 | 14 | 229 | 0.0 | 0.0 | 0.00 | 0.00 | 0.03 | 92 | 1007.1 |
| 20260831033006 | 15 | 229 | 0.0 | 0.0 | 0.00 | 0.00 | 0.03 | 92 | 1007.1 |
| 20260831031505 | 15 | 229 | 1.6 | 0.0 | 0.00 | 0.00 | 0.03 | 92 | 1007.2 |
| 20260831030004 | 15 | 226 | 1.6 | 0.0 | 0.00 | 0.00 | 0.03 | 92 | 1007.5 |
| 20260831024506 | 15 | 234 | 0.0 | 0.0 | 0.00 | 0.00 | 0.03 | 92 | 1007.5 |
| 20260831023002 | 15 | 235 | 0.0 | 0.0 | 0.00 | 0.00 | 0.03 | 92 | 1007.4 |
| 20260831021502 | 15 | 228 | 0.0 | 0.0 | 0.00 | 0.00 | 0.03 | 92 | 1007.6 |
| 20260831020002 | 15 | 228 | 1.6 | 0.0 | 0.00 | 0.00 | 0.03 | 92 | 1007.6 |
| 20260831014504 | 15 | 229 | 1.6 | 0.0 | 0.00 | 0.00 | 0.03 | 92 | 1007.6 |
| 20260831013101 | 15 | 232 | 1.6 | 0.0 | 0.00 | 0.00 | 0.03 | 92 | 1007.7 |
| 20260831011600 | 15 | 242 | 1.6 | 0.0 | 0.00 | 0.00 | 0.03 | 92 | 1007.7 |
| 20260831010111 | 15 | 244 | 0.0 | 0.0 | 0.00 | 0.00 | 0.03 | 92 | 1007.6 |
| 20260831004606 | 15 | 244 | 0.0 | 0.0 | 0.00 | 0.00 | 0.03 | 92 | 1007.5 |
| 20260831003108 | 14 | 244 | 0.0 | 0.0 | 0.00 | 0.00 | 0.03 | 92 | 1007.5 |
| 20260831001558 | 13 | 244 | 0.0 | 0.0 | 0.00 | 0.00 | 0.03 | 92 | 1007.6 |
| 20260831000057 | 13 | 244 | 0.0 | 0.0 | 0.00 | 0.00 | 0.03 | 91 | 1007.6 |
| 20260830234605 | 13 | 244 | 0.0 | 0.0 | 0.00 | 0.00 | 0.03 | 90 | 1007.5 |
| 20260830233054 | 13 | 244 | 0.0 | 0.0 | 0.00 | 0.00 | 0.03 | 90 | 1007.5 |
| 20260830231601 | 14 | 244 | 0.0 | 0.0 | 0.00 | 0.00 | 0.03 | 90 | 1007.5 |
| 20260830230052 | 14 | 244 | 0.0 | 0.0 | 0.00 | 0.00 | 0.00 | 89 | 1007.6 |
| 20260830224601 | 15 | 244 | 0.0 | 0.0 | 0.00 | 0.00 | 0.00 | 89 | 1007.5 |
| 20260830223048 | 15 | 244 | 0.0 | 0.0 | 0.00 | 0.00 | 0.00 | 89 | 1007.5 |
| 20260830221544 | 15 | 244 | 0.0 | 0.0 | 0.00 | 0.00 | 0.00 | 88 | 1007.5 |
| 20260830220042 | 16 | 244 | 0.0 | 0.0 | 0.00 | 0.00 | 0.00 | 88 | 1007.4 |
| 20260830214545 | 16 | 243 | 0.0 | 0.0 | 0.00 | 0.00 | 0.13 | 88 | 1007.5 |
| 20260830213040 | 16 | 242 | 0.0 | 0.0 | 0.00 | 0.00 | 0.13 | 88 | 1007.5 |
| 20260830211539 | 16 | 242 | 0.0 | 0.0 | 0.00 | 0.00 | 0.13 | 88 | 1007.4 |
| 20260830210045 | 16 | 242 | 0.0 | 0.0 | 0.00 | 0.00 | 0.13 | 88 | 1007.4 |
| 20260830204541 | 16 | 225 | 1.6 | 0.0 | 0.00 | 0.00 | 0.13 | 89 | 1007.4 |
| 20260830203035 | 16 | 257 | 0.0 | 0.0 | 0.00 | 0.00 | 0.13 | 89 | 1007.1 |
| 20260830201535 | 16 | 244 | 0.0 | 0.0 | 0.00 | 0.00 | 0.13 | 89 | 1007.1 |
| 20260830200032 | 16 | 244 | 0.0 | 0.0 | 0.00 | 0.00 | 0.13 | 89 | 1007.0 |
| 20260830194531 | 16 | 244 | 0.0 | 0.0 | 0.00 | 0.00 | 0.13 | 89 | 1006.8 |
| 20260830193029 | 16 | 251 | 0.0 | 0.0 | 0.00 | 0.00 | 0.13 | 89 | 1006.5 |
| 20260830191528 | 16 | 249 | 0.0 | 0.0 | 0.00 | 0.00 | 0.13 | 90 | 1006.3 |
| 20260830190032 | 16 | 249 | 0.0 | 0.0 | 0.00 | 0.00 | 0.13 | 90 | 1006.1 |
| 20260830184525 | 16 | 248 | 0.0 | 0.0 | 0.00 | 0.00 | 0.13 | 90 | 1006.0 |
| 20260830183023 | 16 | 248 | 0.0 | 0.0 | 0.00 | 0.00 | 0.13 | 90 | 1005.9 |
| 20260830181522 | 17 | 208 | 0.0 | 0.0 | 0.00 | 0.00 | 0.13 | 90 | 1005.7 |
| 20260830180021 | 17 | 242 | 0.0 | 0.0 | 0.00 | 0.00 | 0.13 | 90 | 1005.4 |
| 20260830174521 | 17 | 230 | 0.0 | 0.0 | 0.00 | 0.00 | 0.10 | 90 | 1005.1 |
| 20260830173022 | 17 | 256 | 0.0 | 0.0 | 0.00 | 0.00 | 0.10 | 90 | 1004.8 |
| 20260830171520 | 17 | 251 | 1.6 | 0.0 | 0.00 | 0.00 | 0.10 | 90 | 1004.6 |
| 20260830170020 | 17 | 319 | 0.0 | 0.0 | 0.00 | 0.00 | 0.10 | 89 | 1004.3 |
| 20260830164519 | 17 | 320 | 0.0 | 0.0 | 0.00 | 0.00 | 0.10 | 89 | 1004.0 |
| 20260830163023 | 18 | 355 | 1.6 | 0.0 | 0.00 | 0.00 | 0.10 | 88 | 1003.6 |
| 20260830161521 | 18 | 337 | 0.0 | 0.0 | 0.00 | 0.00 | 0.10 | 88 | 1003.2 |
| 20260830160020 | 19 | 237 | 1.6 | 0.0 | 0.00 | 0.00 | 0.10 | 88 | 1003.0 |
| 20260830154518 | 19 | 244 | 0.0 | 0.0 | 0.00 | 0.00 | 0.10 | 87 | 1002.6 |
| 20260830153038 | 20 | 236 | 1.6 | 0.0 | 0.00 | 0.00 | 0.10 | 87 | 1002.2 |
| 20260830151516 | 20 | 310 | 0.0 | 0.0 | 0.00 | 0.00 | 0.10 | 89 | 1002.0 |
| 20260830150016 | 20 | 304 | 0.0 | 0.0 | 0.00 | 0.00 | 0.10 | 90 | 1001.8 |
| 20260830144517 | 20 | 232 | 0.0 | 0.0 | 0.00 | 0.00 | 0.08 | 91 | 1001.8 |
| 20260830143015 | 20 | 222 | 0.0 | 0.0 | 0.00 | 0.00 | 0.08 | 91 | 1001.6 |
| 20260830141518 | 20 | 221 | 0.0 | 0.0 | 0.00 | 0.00 | 0.08 | 91 | 1001.4 |
| 20260830140014 | 20 | 220 | 0.0 | 0.0 | 0.00 | 0.00 | 0.08 | 92 | 1001.3 |
| 20260830134516 | 19 | 218 | 1.6 | 0.0 | 0.00 | 0.00 | 0.08 | 92 | 1001.1 |
| 20260830133015 | 18 | 230 | 3.2 | 0.0 | 0.00 | 0.00 | 0.08 | 92 | 1001.1 |
| 20260830131515 | 18 | 219 | 1.6 | 0.0 | 0.00 | 0.00 | 0.08 | 91 | 1001.1 |
| 20260830130013 | 18 | 232 | 4.8 | 0.0 | 0.00 | 0.00 | 0.08 | 91 | 1001.0 |
| 20260830124512 | 18 | 248 | 4.8 | 0.0 | 0.00 | 0.00 | 0.08 | 90 | 1000.8 |
| 20260830123012 | 18 | 233 | 4.8 | 0.0 | 0.00 | 0.00 | 0.08 | 89 | 1000.7 |